Regional Weather Roundup
Issued by NWS

Home | Current Version | Previous Version | Text Only | Print | Product List | Glossary Off
Versions: 1 2 3 4 5 6 7 8 9 10 11 12 13 14 15 16 17 18 19 20 21 22 23 24 25 26 27 28 29 30 31 32 33 34 35 36 37 38 39 40 41 42 43 44 45 46 47 48 49 50

000
ASUS43 KLOT 052003
RWRIL

ILLINOIS REGIONAL WEATHER ROUNDUP
NATIONAL WEATHER SERVICE CHICAGO/ROMEOVILLE IL
300 PM CDT THU MAY 05 2016

NOTE: "FAIR" INDICATES FEW OR NO CLOUDS BELOW 12,000 FEET WITH NO
SIGNIFICANT WEATHER AND/OR OBSTRUCTIONS TO VISIBILITY.

* THESE STATIONS ARE NOT UNDER NWS QUALITY CONTROL. THEY ALSO MAY NOT
  REPORT WEATHER SUCH AS PRECIPITATION OR FOG.

ILZ001-002-007-009-015-016-024-052100-
NORTHWEST ILLINOIS

CITY           SKY/WX    TMP DP  RH WIND       PRES   REMARKS
MOLINE         SUNNY     67  36  31 NW10      30.02F
STERLING*      SUNNY     64  43  45 NW7       30.02F
SAVANNA*       SUNNY     64  39  39 W5        30.02S
$$

ILZ003-004-008-010-011-017-018-052100-
NORTH CENTRAL ILLINOIS

CITY           SKY/WX    TMP DP  RH WIND       PRES   REMARKS
ROCKFORD       SUNNY     65  38  36 W8        30.02F
FREEPORT*      SUNNY     61  35  38 CALM      30.03F
ROCHELLE*      SUNNY     62  42  48 N3        30.01F
DE KALB*       SUNNY     63  45  52 N9        30.01S
$$

ILZ005-006-012>014-019>023-052100-
NORTHEAST ILLINOIS

CITY           SKY/WX    TMP DP  RH WIND       PRES   REMARKS
CHICAGO-OHARE  MOSUNNY   60  42  51 E10       29.99S
CHICAGO-MIDWAY MOSUNNY   59  40  49 NE14      30.00S
AURORA         SUNNY     64  45  49 VRB5      29.99F
LANSING*       SUNNY     53  42  66 NE14      30.01F
WAUKEGAN       SUNNY     54  40  59 NE14      29.99F
DUPAGE AIRPORT SUNNY     64  44  48 NW10      29.98F
WHEELING       SUNNY     56  40  55 NE12      30.01S
NORTHERLY ISL    N/A     49  40  71 MISG        N/A
NORTHERLY ISL    N/A     49  40  71 MISG        N/A
$$

LMZ740>746-052100-
SOUTHERN LAKE MICHIGAN

STATION/POSITION SKY/WX   TEMP    WIND        PRES    VSBY  WAVE
                          AIR SEA DIR/SP/G                  HT/PER
                          (F)     (DEG/KT/KT) (MB)    (MI)  (FT/S)
SOUTHERN BUOY              40 40  350/ 14/ 16 1016.0          4/ 6
WILMETTE HARBOR            43 43   60/ 14/ 17   N/A           4/ 6
HARRISON CRIB              45     360/ 15/ 17   N/A
BURNHAM HARBOR             50     350/  8/ 14   N/A
CALUMET HARBOR             47     340/ 14/ 20 1016.1F
BURNS HARBOR               42     360/  9/ 14 1017.3R
MICHIGAN CITY              43     330/ 11/ 13   N/A
ST. JOSEPH                 43 47                N/A           4/ 5
$$

ILZ025>027-034>036-040-047-049-050-058-095>099-052100-
WEST-CENTRAL ILLINOIS

CITY           SKY/WX    TMP DP  RH WIND       PRES   REMARKS
QUINCY         SUNNY     64  40  41 N12       30.05S
MACOMB*        SUNNY     65  38  36 N10G16    30.05F
PITTSFIELD*    SUNNY     63  40  42 N3        30.05S
$$

ILZ028>032-037-038-041>044-048-051>054-059>061-052100-
CENTRAL ILLINOIS

CITY           SKY/WX    TMP DP  RH WIND       PRES   REMARKS
BLOOMINGTON    MOSUNNY   65  45  48 N13       30.00S
DECATUR        MOSUNNY   64  46  52 N10G21    29.99S
PEORIA         MOSUNNY   66  43  43 N10       30.01F
LINCOLN*       MOSUNNY   66  48  52 N9        30.00S
SPRINGFIELD    MOSUNNY   67  43  41 NW15      30.01F
TAYLORVILLE    NOT AVBL
$$

ILZ033-039-045-046-055>057-062-063-052100-
EAST-CENTRAL ILLINOIS

CITY           SKY/WX    TMP DP  RH WIND       PRES   REMARKS
CHAMPAIGN      MOSUNNY   67  43  41 N10G21    29.96S
MATTOON        MOSUNNY   65  44  46 N16       29.96S
$$

ILZ079-100>102-052100-
SOUTHWEST ILLINOIS

CITY           SKY/WX    TMP DP  RH WIND       PRES   REMARKS
ALTON          PTSUNNY   61  43  51 N9        30.03S
BELLEVILLE     PTSUNNY   62  46  55 N7        30.01F
CAHOKIA*       PTSUNNY   64  43  46 N9        30.02F
SPARTA*        CLOUDY    58  45  61 N13G18    30.03S
$$

ILZ064>066-069>071-074>076-080>082-084>086-088>090-092>094-052100-
SOUTH-CENTRAL ILLINOIS

CITY           SKY/WX    TMP DP  RH WIND       PRES   REMARKS
CARBONDALE     CLOUDY    61  43  51 N15G21    30.01R
MARION         PTSUNNY   61  45  55 N15       30.01R
MT. VERNON     CLOUDY    57  43  58 N5        30.01S
SALEM*         PTSUNNY   61  47  58 NW10G20   30.00S
$$

ILZ067-068-072-073-078-083-087-091-052100-
SOUTHEAST ILLINOIS

CITY           SKY/WX    TMP DP  RH WIND       PRES   REMARKS
LAWRENCEVILLE  CLOUDY    62  47  57 N15       29.96F
FLORA*         CLOUDY    62  47  58 N10G17    29.99S
HARRISBURG*    CLOUDY    58  45  62 N9        30.00R
ROBINSON*      PTSUNNY   60  48  64 NW9G16    29.96S
$$

ABBREVIATIONS USED IN REMARKS
   TC - TEMPERATURE IN CELSIUS
  WCI - WIND CHILL INDEX
   HX - HEAT INDEX
  VSB - VISIBILITY
$$





USA.gov is the U.S. government's official web portal to all federal, state and local government web resources and services.